Kezdőlap
METAR-TAF:

METAR-TAF

Repülőterek :

Menomonie Municipal Airport (Score Field)

Menomonie, Wisconsin, Amerikai Egyesült Államok

földrajzi szélesség: 44-53-32N, földrajzi hosszúság: 091-52-04W, magasság: 273 m

Jelenlegi meteorológiai megfigyelések

A jelentés 14 perccel ezelõtt készült, 16:15 UTC
Keleti szél 3 kt
Hőmérséklet -1°C
Páratartalom 100%
Légköri nyomás 1020 hPa
Látótávolság: 16.1 km
Derült ég

METAR: KLUM 081615Z AUTO 08003KT 10SM CLR M01/M01 A3012 RMK AO2 T10091013 PWINO

Idő: 10:29 (16:29 UTC)


TAF: hiányzik

Meteorológiai megfigyelések és előrejelzések több, mint 4000 repülőtéren (METAR és TAF jelentéseket).

A térképen piros és sárga pontok jelzik az elérhető meteorológiai állomásokat.

Mozgassa az egeret a pont fölött, hogy megjelenjen az állomás neve.

Azután kattintson az időjárási megfigyelések és előrejelzések megtekintéséhez.

A térkép megváltoztatása: kattintson a fekete keresztel jelölt zöld gombra ráközelítéshez, a vonallal jelölt zöld gombra távolításhoz, vagy a zöld nyilakra a szomszédos térképek eléréséhez.


METAR-TAF: